DLH400 EDDF-KJFK

Flight info

Callsign DLH400
Flight time N/A
Altitude 36000
Route OBOKA3D OBOKA Z28 DIBIR DCT BUDIP DCT RAVLO Y70 OTBED DCT ABLUC DCT OZRAT DCT WETFI DCT TUGSI DCT REVNU DCT VENER/M082F380 DCT 5430N02000W 5330N03000W 5130N04000W 4930N05000W DCT IBERG/N0471F380 N364A TUSKY DCT PLYMM PARCH4
Aircraft A346/H-SDE2E3FGHIJ3J4J5M1P2RWXYZ/LB1D1

Departure

Time N/A
Airport Frankfurt Main Airport (EDDF)

Arrival

Time 2026-05-08 13:09
Airport John F. Kennedy International Airport (KJFK)
Time Latitude Longitude Altitude Speed Heading
2026-05-08 07:13 54.50097 -15.05224 37442 ft 453 kts 270°
2026-05-08 07:14 54.50202 -15.10662 37683 ft 454 kts 270°
2026-05-08 07:14 54.50309 -15.16106 37909 ft 455 kts 270°
2026-05-08 07:14 54.50413 -15.21562 38113 ft 456 kts 270°
2026-05-08 07:14 54.50515 -15.27041 38130 ft 458 kts 270°
2026-05-08 07:15 54.50715 -15.38019 38141 ft 458 kts 270°
2026-05-08 07:15 54.50904 -15.49007 38146 ft 459 kts 270°
2026-05-08 07:16 54.51082 -15.59987 38148 ft 458 kts 270°
2026-05-08 07:16 54.51248 -15.70980 38154 ft 459 kts 270°
2026-05-08 07:17 54.51403 -15.81983 38149 ft 459 kts 271°
2026-05-08 07:17 54.51553 -15.92998 38153 ft 459 kts 270°
2026-05-08 07:18 54.51692 -16.03993 38153 ft 459 kts 270°
2026-05-08 07:18 54.51819 -16.14934 38157 ft 459 kts 270°
2026-05-08 07:19 54.51937 -16.25927 38158 ft 459 kts 270°
2026-05-08 07:19 54.52043 -16.36929 38162 ft 459 kts 270°
2026-05-08 07:20 54.52141 -16.47932 38163 ft 459 kts 270°
2026-05-08 07:20 54.52230 -16.58939 38164 ft 459 kts 270°
2026-05-08 07:21 54.52308 -16.69947 38161 ft 459 kts 270°
2026-05-08 07:21 54.52376 -16.80951 38170 ft 460 kts 270°
2026-05-08 07:22 54.52434 -16.91958 38166 ft 458 kts 270°
2026-05-08 07:22 54.52481 -17.02959 38170 ft 459 kts 270°
2026-05-08 07:23 54.52520 -17.13968 38171 ft 458 kts 270°
2026-05-08 07:23 54.52547 -17.24968 38174 ft 460 kts 270°
2026-05-08 07:24 54.52565 -17.35986 38173 ft 459 kts 270°
2026-05-08 07:24 54.52570 -17.46992 38182 ft 461 kts 270°
2026-05-08 07:25 54.52567 -17.58047 38183 ft 460 kts 270°
2026-05-08 07:26 54.52548 -17.74659 38184 ft 461 kts 270°
2026-05-08 07:26 54.52520 -17.85699 38185 ft 460 kts 270°
2026-05-08 07:27 54.52483 -17.96743 38191 ft 461 kts 270°
2026-05-08 07:27 54.52433 -18.07788 38185 ft 461 kts 270°
2026-05-08 07:28 54.52377 -18.18857 38194 ft 462 kts 270°
2026-05-08 07:28 54.52310 -18.29835 38193 ft 461 kts 270°
2026-05-08 07:29 54.52232 -18.40977 38205 ft 462 kts 270°
2026-05-08 07:29 54.52144 -18.52060 38198 ft 460 kts 270°
2026-05-08 07:30 54.52043 -18.63127 38198 ft 463 kts 270°
2026-05-08 07:30 54.51935 -18.74216 38201 ft 462 kts 270°
2026-05-08 07:31 54.51819 -18.85309 38213 ft 463 kts 270°
2026-05-08 07:31 54.51689 -18.96392 38207 ft 462 kts 270°
2026-05-08 07:32 54.51552 -19.07484 38213 ft 463 kts 270°
2026-05-08 07:32 54.51398 -19.18566 38208 ft 463 kts 270°
2026-05-08 07:33 54.51241 -19.29702 38218 ft 464 kts 270°
2026-05-08 07:33 54.51071 -19.40816 38215 ft 464 kts 270°
2026-05-08 07:34 54.50893 -19.51935 38217 ft 464 kts 270°
2026-05-08 07:34 54.50703 -19.62969 38216 ft 464 kts 269°
2026-05-08 07:35 54.50501 -19.74101 38219 ft 465 kts 270°
2026-05-08 07:35 54.50291 -19.85246 38226 ft 465 kts 270°
2026-05-08 07:36 54.50069 -19.96404 38229 ft 466 kts 269°
2026-05-08 07:36 54.49567 -20.07547 38230 ft 467 kts 266°
2026-05-08 07:37 54.48922 -20.18686 38231 ft 467 kts 266°
2026-05-08 07:37 54.48263 -20.29816 38224 ft 468 kts 266°
2026-05-08 07:38 54.47595 -20.40976 38234 ft 468 kts 266°
2026-05-08 07:38 54.46920 -20.52142 38237 ft 469 kts 266°
2026-05-08 07:39 54.46231 -20.63312 38238 ft 469 kts 266°
2026-05-08 07:39 54.45534 -20.74471 38239 ft 469 kts 266°
2026-05-08 07:40 54.44821 -20.85642 38241 ft 471 kts 266°
2026-05-08 07:40 54.44100 -20.96849 38244 ft 471 kts 266°
2026-05-08 07:41 54.43369 -21.08052 38242 ft 471 kts 266°
2026-05-08 07:41 54.42626 -21.19251 38245 ft 471 kts 266°
2026-05-08 07:42 54.41875 -21.30376 38249 ft 472 kts 266°
2026-05-08 07:42 54.41106 -21.41604 38248 ft 473 kts 266°
2026-05-08 07:43 54.40331 -21.52832 38259 ft 473 kts 266°
2026-05-08 07:43 54.39545 -21.64065 38250 ft 473 kts 266°
2026-05-08 07:44 54.38748 -21.75284 38259 ft 473 kts 266°
2026-05-08 07:44 54.37940 -21.86506 38253 ft 473 kts 266°
2026-05-08 07:45 54.37117 -21.97729 38258 ft 474 kts 266°
2026-05-08 07:45 54.36288 -22.08955 38259 ft 474 kts 266°
2026-05-08 07:46 54.35449 -22.20168 38258 ft 474 kts 266°
2026-05-08 07:46 54.34598 -22.31387 38269 ft 474 kts 266°
2026-05-08 07:47 54.33737 -22.42600 38265 ft 474 kts 266°
2026-05-08 07:47 54.32865 -22.53807 38271 ft 474 kts 266°
2026-05-08 07:48 54.31983 -22.65007 38270 ft 474 kts 266°
2026-05-08 07:48 54.31090 -22.76210 38270 ft 474 kts 265°
2026-05-08 07:49 54.30186 -22.87407 38276 ft 474 kts 265°
2026-05-08 07:49 54.29267 -22.98630 38264 ft 474 kts 266°
2026-05-08 07:50 54.28341 -23.09832 38272 ft 474 kts 266°
2026-05-08 07:50 54.27408 -23.21015 38282 ft 474 kts 265°
2026-05-08 07:51 54.26463 -23.32205 38282 ft 474 kts 265°
2026-05-08 07:51 54.25507 -23.43391 38286 ft 474 kts 265°
2026-05-08 07:52 54.24537 -23.54566 38275 ft 475 kts 266°
2026-05-08 07:52 54.23558 -23.65751 38286 ft 475 kts 266°
2026-05-08 07:53 54.22573 -23.76930 38290 ft 475 kts 266°
2026-05-08 07:53 54.21574 -23.88116 38294 ft 475 kts 266°
2026-05-08 07:54 54.20736 -23.97406 38298 ft 475 kts 265°
2026-05-08 07:54 54.19715 -24.08574 38290 ft 475 kts 266°
2026-05-08 07:55 54.18688 -24.19736 38297 ft 475 kts 266°
2026-05-08 07:55 54.17650 -24.30897 38301 ft 475 kts 266°
2026-05-08 07:56 54.16602 -24.42051 38302 ft 475 kts 265°
2026-05-08 07:56 54.15542 -24.53204 38310 ft 475 kts 265°
2026-05-08 07:57 54.14470 -24.64345 38306 ft 475 kts 266°
2026-05-08 07:57 54.13392 -24.75475 38308 ft 475 kts 265°
2026-05-08 07:58 54.12302 -24.86605 38308 ft 475 kts 265°
2026-05-08 07:58 54.11209 -24.97667 38328 ft 475 kts 265°
2026-05-08 07:59 54.10105 -25.08716 38301 ft 475 kts 265°
2026-05-08 07:59 54.08980 -25.19826 38327 ft 475 kts 266°
2026-05-08 08:00 54.07852 -25.30924 38328 ft 475 kts 265°
2026-05-08 08:00 54.06712 -25.42025 38334 ft 475 kts 265°
2026-05-08 08:01 54.05562 -25.53112 38334 ft 475 kts 265°
2026-05-08 08:01 54.04398 -25.64198 38310 ft 475 kts 265°
2026-05-08 08:02 54.03226 -25.75272 38336 ft 475 kts 265°
2026-05-08 08:02 54.02047 -25.86339 38336 ft 475 kts 266°
2026-05-08 08:03 54.00854 -25.97401 38346 ft 475 kts 266°
2026-05-08 08:03 53.99654 -26.08457 38347 ft 475 kts 265°
2026-05-08 08:04 53.98438 -26.19513 38338 ft 475 kts 266°
2026-05-08 08:04 53.97219 -26.30543 38352 ft 475 kts 266°
2026-05-08 08:05 53.95989 -26.41580 38355 ft 475 kts 266°
2026-05-08 08:05 53.94748 -26.52610 38356 ft 475 kts 266°
2026-05-08 08:06 53.93495 -26.63640 38358 ft 475 kts 265°
2026-05-08 08:06 53.92237 -26.74586 38343 ft 475 kts 266°
2026-05-08 08:07 53.90958 -26.85670 38364 ft 475 kts 266°
2026-05-08 08:07 53.89684 -26.96609 38368 ft 475 kts 266°
2026-05-08 08:08 53.88391 -27.07616 38376 ft 475 kts 266°
2026-05-08 08:08 53.87087 -27.18618 38337 ft 476 kts 265°
2026-05-08 08:09 53.85771 -27.29606 38362 ft 475 kts 266°
2026-05-08 08:09 53.84450 -27.40582 38372 ft 475 kts 266°
2026-05-08 08:10 53.83114 -27.51587 38374 ft 475 kts 265°
2026-05-08 08:10 53.81771 -27.62555 38375 ft 475 kts 265°
2026-05-08 08:11 53.80412 -27.73561 38383 ft 475 kts 265°
2026-05-08 08:11 53.79045 -27.84548 38386 ft 475 kts 265°
2026-05-08 08:12 53.77670 -27.95508 38394 ft 476 kts 265°
2026-05-08 08:12 53.76286 -28.06450 38389 ft 476 kts 265°
2026-05-08 08:13 53.74890 -28.17385 38386 ft 475 kts 265°
2026-05-08 08:13 53.73489 -28.28299 38371 ft 474 kts 265°
2026-05-08 08:14 53.72082 -28.39177 38395 ft 473 kts 265°
2026-05-08 08:14 53.70664 -28.50054 38396 ft 473 kts 265°
2026-05-08 08:15 53.69247 -28.60837 38400 ft 473 kts 265°
2026-05-08 08:15 53.67809 -28.71696 38405 ft 473 kts 265°
2026-05-08 08:16 53.66365 -28.82515 38395 ft 471 kts 265°
2026-05-08 08:16 53.64916 -28.93298 38406 ft 471 kts 264°
2026-05-08 08:17 53.63458 -29.04068 38406 ft 471 kts 264°
2026-05-08 08:17 53.61990 -29.14837 38407 ft 471 kts 264°
2026-05-08 08:18 53.60512 -29.25594 38374 ft 471 kts 264°
2026-05-08 08:18 53.59031 -29.36308 38409 ft 469 kts 264°
2026-05-08 08:19 53.57539 -29.47009 38420 ft 469 kts 264°
2026-05-08 08:19 53.56039 -29.57690 38418 ft 469 kts 264°
2026-05-08 08:20 53.54529 -29.68374 38421 ft 469 kts 264°
2026-05-08 08:20 53.53013 -29.79040 38405 ft 467 kts 263°
2026-05-08 08:21 53.51490 -29.89658 38425 ft 466 kts 263°
2026-05-08 08:21 53.49959 -30.00251 38425 ft 466 kts 263°
2026-05-08 08:22 53.48375 -30.10829 38420 ft 467 kts 263°
2026-05-08 08:22 53.46765 -30.21398 38427 ft 467 kts 263°
2026-05-08 08:23 53.45153 -30.31949 38418 ft 464 kts 262°
2026-05-08 08:23 53.43542 -30.42421 38427 ft 463 kts 262°
2026-05-08 08:24 53.41922 -30.52879 38438 ft 463 kts 262°
2026-05-08 08:24 53.40295 -30.63332 38437 ft 463 kts 262°
2026-05-08 08:25 53.38659 -30.73772 38433 ft 463 kts 262°
2026-05-08 08:25 53.37016 -30.84203 38427 ft 462 kts 262°
2026-05-08 08:26 53.35374 -30.94549 38441 ft 462 kts 261°
2026-05-08 08:26 53.33712 -31.04953 38442 ft 462 kts 261°
2026-05-08 08:27 53.32040 -31.15353 38445 ft 462 kts 261°
2026-05-08 08:27 53.30359 -31.25750 38411 ft 462 kts 261°
2026-05-08 08:28 53.28675 -31.36124 38449 ft 462 kts 261°
2026-05-08 08:28 53.26978 -31.46484 38450 ft 461 kts 261°
2026-05-08 08:29 53.25273 -31.56834 38451 ft 461 kts 261°
2026-05-08 08:29 53.23560 -31.67177 38454 ft 462 kts 261°
2026-05-08 08:30 53.21838 -31.77508 38426 ft 461 kts 261°
2026-05-08 08:30 53.19246 -31.92935 38449 ft 459 kts 261°
2026-05-08 08:31 53.17512 -32.03197 38449 ft 459 kts 260°
2026-05-08 08:31 53.15767 -32.13456 38451 ft 459 kts 260°
2026-05-08 08:32 53.14013 -32.23708 38451 ft 459 kts 260°
2026-05-08 08:32 53.12249 -32.33926 38445 ft 457 kts 261°
2026-05-08 08:33 53.10485 -32.44123 38449 ft 457 kts 261°
2026-05-08 08:33 53.08716 -32.54294 38445 ft 457 kts 260°
2026-05-08 08:34 53.06935 -32.64469 38451 ft 456 kts 260°
2026-05-08 08:34 53.05149 -32.74616 38454 ft 456 kts 260°
2026-05-08 08:35 53.03354 -32.84748 38453 ft 456 kts 260°
2026-05-08 08:35 53.01551 -32.94873 38455 ft 457 kts 260°
2026-05-08 08:36 52.99738 -33.04998 38455 ft 457 kts 260°
2026-05-08 08:36 52.97916 -33.15112 38455 ft 457 kts 260°
2026-05-08 08:37 52.96085 -33.25214 38429 ft 455 kts 260°
2026-05-08 08:37 52.94258 -33.35231 38450 ft 452 kts 260°
2026-05-08 08:38 52.92431 -33.45222 38451 ft 452 kts 260°
2026-05-08 08:38 52.90595 -33.55205 38454 ft 452 kts 260°
2026-05-08 08:39 52.88757 -33.65134 38452 ft 452 kts 260°
2026-05-08 08:39 52.86903 -33.75094 38436 ft 450 kts 260°
2026-05-08 08:40 52.85054 -33.84967 38451 ft 448 kts 260°
2026-05-08 08:40 52.83203 -33.94819 38454 ft 448 kts 260°
2026-05-08 08:41 52.81330 -34.04733 38454 ft 448 kts 260°
2026-05-08 08:41 52.79474 -34.14501 38454 ft 448 kts 259°
2026-05-08 08:42 52.77601 -34.24324 38444 ft 447 kts 259°
2026-05-08 08:42 52.75716 -34.34137 38456 ft 446 kts 259°
2026-05-08 08:43 52.73830 -34.43899 38452 ft 446 kts 259°
2026-05-08 08:43 52.72257 -34.52013 38451 ft 446 kts 259°
2026-05-08 08:44 52.70356 -34.61765 38451 ft 446 kts 259°
2026-05-08 08:44 52.68455 -34.71505 38425 ft 446 kts 258°
2026-05-08 08:45 52.66539 -34.81242 38443 ft 446 kts 258°
2026-05-08 08:45 52.64611 -34.90971 38447 ft 446 kts 258°
2026-05-08 08:46 52.62677 -35.00694 38447 ft 446 kts 258°
2026-05-08 08:46 52.60736 -35.10403 38447 ft 446 kts 258°
2026-05-08 08:47 52.58789 -35.20114 38428 ft 447 kts 257°
2026-05-08 08:47 52.56827 -35.29834 38447 ft 447 kts 257°
2026-05-08 08:48 52.54860 -35.39530 38439 ft 447 kts 257°
2026-05-08 08:48 52.52882 -35.49237 38445 ft 447 kts 257°
2026-05-08 08:49 52.50892 -35.58949 38436 ft 447 kts 257°
2026-05-08 08:49 52.48902 -35.68623 38428 ft 446 kts 257°
2026-05-08 08:50 52.46908 -35.78263 38434 ft 446 kts 257°
2026-05-08 08:50 52.44907 -35.87896 38437 ft 446 kts 257°
2026-05-08 08:51 52.42896 -35.97524 38433 ft 446 kts 257°
2026-05-08 08:51 52.40867 -36.07200 38433 ft 446 kts 257°
2026-05-08 08:52 52.38846 -36.16789 38425 ft 443 kts 256°
2026-05-08 08:52 52.36824 -36.26331 38425 ft 443 kts 256°
2026-05-08 08:53 52.34797 -36.35858 38423 ft 443 kts 256°
2026-05-08 08:53 52.32760 -36.45387 38424 ft 443 kts 256°
2026-05-08 08:54 52.30717 -36.54902 38385 ft 443 kts 256°
2026-05-08 08:54 52.28681 -36.64342 38417 ft 443 kts 256°
2026-05-08 08:55 52.26609 -36.73897 38421 ft 443 kts 256°
2026-05-08 08:55 52.24537 -36.83411 38419 ft 443 kts 256°
2026-05-08 08:56 52.22460 -36.92903 38422 ft 444 kts 256°
2026-05-08 08:56 52.20389 -37.02320 38386 ft 444 kts 256°
2026-05-08 08:57 52.18300 -37.11774 38403 ft 442 kts 256°
2026-05-08 08:57 52.16202 -37.21233 38409 ft 442 kts 255°
2026-05-08 08:58 52.14103 -37.30657 38411 ft 442 kts 255°
2026-05-08 08:58 52.11992 -37.40089 38410 ft 442 kts 255°
2026-05-08 08:59 52.09877 -37.49492 38409 ft 442 kts 255°
2026-05-08 08:59 52.07754 -37.58894 38410 ft 442 kts 255°
2026-05-08 09:00 52.05623 -37.68288 38409 ft 442 kts 255°
2026-05-08 09:00 52.03484 -37.77675 38407 ft 442 kts 255°
2026-05-08 09:01 52.01338 -37.87049 38405 ft 443 kts 255°
2026-05-08 09:01 51.99181 -37.96424 38388 ft 442 kts 255°
2026-05-08 09:02 51.97022 -38.05774 38398 ft 442 kts 255°
2026-05-08 09:02 51.94852 -38.15132 38399 ft 442 kts 255°
2026-05-08 09:03 51.92680 -38.24459 38403 ft 442 kts 255°
2026-05-08 09:03 51.90515 -38.33713 38399 ft 442 kts 255°
2026-05-08 09:04 51.88324 -38.43025 38390 ft 442 kts 255°
2026-05-08 09:04 51.86122 -38.52360 38387 ft 442 kts 255°
2026-05-08 09:05 51.83914 -38.61683 38388 ft 442 kts 255°
2026-05-08 09:05 51.81702 -38.70974 38388 ft 442 kts 255°
2026-05-08 09:06 51.79484 -38.80250 38386 ft 442 kts 255°
2026-05-08 09:06 51.77262 -38.89495 38367 ft 439 kts 255°
2026-05-08 09:07 51.75046 -38.98691 38377 ft 439 kts 255°
2026-05-08 09:07 51.72824 -39.07873 38375 ft 439 kts 255°
2026-05-08 09:08 51.70592 -39.17053 38373 ft 439 kts 255°
2026-05-08 09:08 51.68351 -39.26234 38347 ft 439 kts 255°
2026-05-08 09:09 51.66106 -39.35386 38366 ft 437 kts 255°
2026-05-08 09:09 51.63865 -39.44488 38369 ft 436 kts 255°
2026-05-08 09:10 51.61629 -39.53535 38369 ft 436 kts 255°
2026-05-08 09:10 51.59377 -39.62608 38364 ft 436 kts 254°
2026-05-08 09:11 51.57119 -39.71667 38339 ft 436 kts 254°
2026-05-08 09:11 51.54859 -39.80697 38353 ft 434 kts 254°
2026-05-08 09:12 51.52594 -39.89704 38353 ft 434 kts 254°
2026-05-08 09:12 51.50423 -39.98777 38361 ft 432 kts 258°
2026-05-08 09:13 51.48792 -40.08007 38351 ft 428 kts 262°
2026-05-08 09:13 51.47385 -40.17284 38341 ft 427 kts 262°
2026-05-08 09:14 51.45979 -40.26505 38354 ft 424 kts 262°
2026-05-08 09:14 51.44574 -40.35690 38350 ft 423 kts 262°
2026-05-08 09:15 51.43162 -40.44865 38359 ft 423 kts 262°
2026-05-08 09:15 51.41751 -40.53985 38346 ft 423 kts 262°
2026-05-08 09:16 51.40322 -40.63173 38350 ft 423 kts 262°
2026-05-08 09:16 51.38889 -40.72326 38333 ft 423 kts 262°
2026-05-08 09:17 51.37450 -40.81466 38337 ft 423 kts 262°
2026-05-08 09:17 51.36001 -40.90631 38335 ft 423 kts 262°
2026-05-08 09:18 51.34549 -40.99758 38335 ft 423 kts 262°
2026-05-08 09:18 51.33089 -41.08883 38329 ft 423 kts 262°
2026-05-08 09:19 51.31620 -41.18002 38318 ft 423 kts 262°
2026-05-08 09:19 51.30145 -41.27126 38321 ft 423 kts 262°
2026-05-08 09:20 51.28663 -41.36241 38323 ft 423 kts 262°
2026-05-08 09:20 51.27175 -41.45348 38317 ft 423 kts 262°
2026-05-08 09:21 51.25678 -41.54452 38314 ft 423 kts 262°
2026-05-08 09:23 51.20388 -41.86245 38307 ft 423 kts 262°
2026-05-08 09:23 51.18872 -41.95253 38307 ft 423 kts 262°
2026-05-08 09:24 51.17339 -42.04315 38299 ft 423 kts 262°
2026-05-08 09:24 51.15798 -42.13372 38301 ft 423 kts 262°
2026-05-08 09:25 51.14249 -42.22430 38301 ft 423 kts 262°
2026-05-08 09:25 51.12693 -42.31481 38299 ft 423 kts 262°
2026-05-08 09:26 51.11131 -42.40524 38296 ft 423 kts 262°
2026-05-08 09:26 51.09560 -42.49567 38293 ft 423 kts 262°
2026-05-08 09:27 51.07983 -42.58605 38291 ft 424 kts 262°
2026-05-08 09:27 51.06394 -42.67652 38284 ft 425 kts 262°
2026-05-08 09:28 51.04807 -42.76655 38288 ft 425 kts 262°
2026-05-08 09:28 51.03204 -42.85697 38288 ft 424 kts 262°
2026-05-08 09:29 51.01599 -42.94707 38284 ft 423 kts 262°
2026-05-08 09:29 50.99987 -43.03715 38279 ft 423 kts 262°
2026-05-08 09:30 50.98370 -43.12704 38271 ft 423 kts 262°
2026-05-08 09:30 50.96744 -43.21697 38274 ft 423 kts 262°
2026-05-08 09:31 50.95112 -43.30678 38283 ft 423 kts 262°
2026-05-08 09:31 50.93472 -43.39662 38280 ft 423 kts 262°
2026-05-08 09:32 50.91825 -43.48636 38272 ft 423 kts 262°
2026-05-08 09:32 50.90172 -43.57602 38256 ft 423 kts 261°
2026-05-08 09:33 50.88512 -43.66566 38267 ft 423 kts 261°
2026-05-08 09:33 50.86843 -43.75525 38272 ft 424 kts 261°
2026-05-08 09:34 50.85452 -43.82962 38270 ft 424 kts 261°
2026-05-08 09:34 50.83771 -43.91912 38273 ft 424 kts 261°
2026-05-08 09:35 50.82088 -44.00842 38261 ft 422 kts 261°
2026-05-08 09:35 50.80398 -44.09750 38259 ft 422 kts 261°
2026-05-08 09:36 50.78701 -44.18649 38259 ft 422 kts 261°
2026-05-08 09:36 50.76996 -44.27554 38257 ft 422 kts 260°
2026-05-08 09:37 50.75279 -44.36478 38263 ft 422 kts 260°
2026-05-08 09:37 50.73557 -44.45389 38258 ft 423 kts 260°
2026-05-08 09:38 50.71832 -44.54278 38245 ft 423 kts 260°
2026-05-08 09:38 50.70101 -44.63150 38251 ft 422 kts 260°
2026-05-08 09:39 50.68365 -44.72008 38250 ft 422 kts 260°
2026-05-08 09:39 50.66623 -44.80859 38247 ft 422 kts 260°
2026-05-08 09:40 50.64885 -44.89646 38239 ft 422 kts 260°
2026-05-08 09:40 50.63117 -44.98548 38223 ft 422 kts 260°
2026-05-08 09:41 50.61370 -45.07311 38246 ft 420 kts 259°
2026-05-08 09:41 50.59618 -45.16048 38236 ft 417 kts 259°
2026-05-08 09:42 50.57861 -45.24770 38234 ft 417 kts 259°
2026-05-08 09:42 50.56099 -45.33479 38222 ft 417 kts 259°
2026-05-08 09:43 50.54329 -45.42189 38222 ft 417 kts 259°
2026-05-08 09:43 50.52558 -45.50884 38218 ft 416 kts 258°
2026-05-08 09:44 50.50782 -45.59543 38216 ft 416 kts 258°
2026-05-08 09:44 50.48999 -45.68200 38211 ft 416 kts 258°
2026-05-08 09:45 50.47210 -45.76851 38204 ft 416 kts 258°
2026-05-08 09:45 50.45416 -45.85492 38192 ft 416 kts 258°
2026-05-08 09:46 50.43615 -45.94129 38194 ft 416 kts 258°
2026-05-08 09:46 50.41812 -46.02743 38185 ft 415 kts 258°
2026-05-08 09:47 50.40000 -46.11351 38181 ft 415 kts 258°
2026-05-08 09:47 50.38189 -46.19934 38172 ft 412 kts 257°
2026-05-08 09:48 50.36396 -46.28381 38170 ft 411 kts 257°
2026-05-08 09:48 50.34572 -46.36940 38166 ft 411 kts 257°
2026-05-08 09:49 50.32774 -46.45356 38153 ft 409 kts 257°
2026-05-08 09:49 50.30960 -46.53792 38157 ft 408 kts 257°
2026-05-08 09:50 50.29143 -46.62212 38146 ft 408 kts 257°
2026-05-08 09:50 50.27320 -46.70629 38146 ft 408 kts 257°
2026-05-08 09:51 50.25491 -46.79039 38138 ft 408 kts 257°
2026-05-08 09:51 50.23655 -46.87449 38139 ft 408 kts 257°
2026-05-08 09:52 50.21814 -46.95848 38131 ft 408 kts 257°
2026-05-08 09:52 50.19968 -47.04234 38127 ft 408 kts 256°
2026-05-08 09:53 50.18113 -47.12626 38122 ft 408 kts 256°
2026-05-08 09:53 50.16252 -47.21012 38122 ft 409 kts 256°
2026-05-08 09:54 50.14395 -47.29359 38117 ft 405 kts 256°
2026-05-08 09:54 50.12546 -47.37638 38117 ft 404 kts 255°
2026-05-08 09:55 50.10687 -47.45901 38103 ft 403 kts 255°
2026-05-08 09:55 50.08824 -47.54159 38098 ft 403 kts 255°
2026-05-08 09:56 50.06955 -47.62412 38102 ft 404 kts 255°
2026-05-08 09:56 50.05081 -47.70659 38093 ft 404 kts 255°
2026-05-08 09:57 50.02285 -47.82916 38087 ft 400 kts 255°
2026-05-08 09:57 50.00413 -47.91071 38076 ft 400 kts 255°
2026-05-08 09:58 49.98535 -47.99222 38072 ft 400 kts 255°
2026-05-08 09:58 49.96652 -48.07363 38064 ft 400 kts 255°
2026-05-08 09:59 49.94763 -48.15502 38064 ft 400 kts 254°
2026-05-08 09:59 49.92874 -48.23634 38056 ft 400 kts 254°
2026-05-08 10:00 49.90977 -48.31755 38064 ft 398 kts 253°
2026-05-08 10:00 49.89088 -48.39793 38042 ft 396 kts 253°
2026-05-08 10:01 49.87195 -48.47817 38040 ft 395 kts 253°
2026-05-08 10:01 49.85299 -48.55830 38029 ft 395 kts 253°
2026-05-08 10:02 49.83398 -48.63839 38034 ft 396 kts 252°
2026-05-08 10:02 49.81496 -48.71851 38010 ft 396 kts 252°
2026-05-08 10:03 49.79579 -48.79852 38008 ft 396 kts 252°
2026-05-08 10:03 49.77660 -48.87843 38012 ft 396 kts 252°
2026-05-08 10:04 49.75735 -48.95830 38006 ft 396 kts 252°
2026-05-08 10:04 49.73805 -49.03813 38005 ft 396 kts 252°
2026-05-08 10:05 49.71884 -49.11746 37991 ft 397 kts 251°
2026-05-08 10:05 49.69937 -49.19736 37983 ft 397 kts 251°
2026-05-08 10:06 49.67983 -49.27726 37980 ft 397 kts 251°
2026-05-08 10:06 49.66027 -49.35710 37997 ft 396 kts 251°
2026-05-08 10:07 49.64071 -49.43661 37971 ft 395 kts 251°
2026-05-08 10:07 49.62109 -49.51594 37963 ft 395 kts 250°
2026-05-08 10:08 49.60146 -49.59521 37947 ft 395 kts 250°
2026-05-08 10:08 49.58174 -49.67439 37960 ft 395 kts 250°
2026-05-08 10:09 49.56198 -49.75349 37946 ft 395 kts 250°
2026-05-08 10:09 49.54217 -49.83257 37938 ft 395 kts 250°
2026-05-08 10:10 49.52230 -49.91156 37952 ft 395 kts 250°
2026-05-08 10:10 49.50237 -49.99063 37928 ft 397 kts 249°
2026-05-08 10:11 49.48300 -50.07029 37926 ft 398 kts 250°
2026-05-08 10:11 49.46390 -50.15018 37925 ft 398 kts 250°
2026-05-08 10:12 49.44485 -50.22942 37919 ft 398 kts 250°
2026-05-08 10:12 49.42558 -50.30919 37918 ft 398 kts 250°
2026-05-08 10:13 49.40627 -50.38884 37911 ft 397 kts 250°
2026-05-08 10:13 49.38690 -50.46839 37902 ft 397 kts 250°
2026-05-08 10:14 49.36746 -50.54786 37899 ft 397 kts 250°
2026-05-08 10:14 49.34795 -50.62733 37899 ft 397 kts 250°
2026-05-08 10:15 49.32839 -50.70677 37892 ft 397 kts 250°
2026-05-08 10:15 49.30878 -50.78611 37884 ft 397 kts 249°
2026-05-08 10:16 49.28915 -50.86526 37875 ft 396 kts 249°
2026-05-08 10:16 49.26950 -50.94420 37876 ft 395 kts 249°
2026-05-08 10:17 49.24985 -51.02285 37876 ft 395 kts 249°
2026-05-08 10:17 49.23027 -51.10097 37877 ft 395 kts 249°
2026-05-08 10:18 49.21035 -51.18016 37866 ft 395 kts 249°
2026-05-08 10:18 49.19066 -51.25817 37866 ft 395 kts 249°
2026-05-08 10:19 49.17079 -51.33662 37855 ft 395 kts 249°
2026-05-08 10:20 49.14086 -51.45426 37854 ft 395 kts 249°
2026-05-08 10:20 49.12085 -51.53260 37841 ft 395 kts 249°
2026-05-08 10:21 49.10079 -51.61084 37839 ft 395 kts 249°
2026-05-08 10:21 49.08068 -51.68903 37837 ft 395 kts 249°
2026-05-08 10:22 49.06061 -51.76677 37834 ft 392 kts 249°
2026-05-08 10:22 49.04056 -51.84417 37833 ft 392 kts 249°
2026-05-08 10:23 49.02046 -51.92148 37825 ft 392 kts 249°
2026-05-08 10:23 49.00044 -51.99823 37824 ft 392 kts 249°
2026-05-08 10:24 48.97999 -52.07521 37824 ft 392 kts 248°
2026-05-08 10:24 48.95942 -52.15214 37827 ft 392 kts 248°
2026-05-08 10:25 48.93877 -52.22901 37818 ft 392 kts 248°
2026-05-08 10:25 48.91811 -52.30567 37820 ft 390 kts 248°
2026-05-08 10:26 48.89749 -52.38197 37807 ft 389 kts 248°
2026-05-08 10:26 48.88033 -52.44530 37806 ft 389 kts 248°
2026-05-08 10:27 48.85963 -52.52146 37805 ft 389 kts 248°
2026-05-08 10:27 48.83895 -52.59731 37798 ft 387 kts 248°
2026-05-08 10:28 48.81827 -52.67292 37788 ft 387 kts 248°
2026-05-08 10:28 48.79758 -52.74834 37786 ft 387 kts 248°
2026-05-08 10:29 48.77683 -52.82372 37786 ft 387 kts 248°
2026-05-08 10:29 48.75604 -52.89902 37777 ft 387 kts 247°
2026-05-08 10:30 48.73521 -52.97427 37777 ft 387 kts 247°
2026-05-08 10:30 48.71431 -53.04949 37763 ft 387 kts 247°
2026-05-08 10:31 48.69335 -53.12465 37764 ft 387 kts 247°
2026-05-08 10:31 48.67233 -53.19978 37756 ft 387 kts 247°
2026-05-08 10:32 48.65134 -53.27478 37768 ft 385 kts 246°
2026-05-08 10:32 48.63032 -53.34940 37758 ft 385 kts 246°
2026-05-08 10:33 48.60924 -53.42400 37750 ft 386 kts 246°
2026-05-08 10:33 48.58811 -53.49861 37750 ft 386 kts 246°
2026-05-08 10:34 48.56691 -53.57320 37745 ft 386 kts 246°
2026-05-08 10:34 48.54567 -53.64772 37746 ft 386 kts 246°
2026-05-08 10:35 48.52438 -53.72219 37739 ft 386 kts 246°
2026-05-08 10:35 48.50304 -53.79666 37741 ft 386 kts 246°
2026-05-08 10:36 48.48185 -53.87033 37740 ft 385 kts 245°
2026-05-08 10:36 48.46048 -53.94440 37734 ft 385 kts 245°
2026-05-08 10:37 48.43908 -54.01833 37736 ft 385 kts 245°
2026-05-08 10:37 48.41761 -54.09230 37738 ft 385 kts 245°
2026-05-08 10:38 48.39611 -54.16622 37763 ft 384 kts 245°
2026-05-08 10:38 48.37469 -54.23972 37727 ft 382 kts 244°
2026-05-08 10:39 48.35321 -54.31294 37728 ft 382 kts 244°
2026-05-08 10:39 48.33171 -54.38606 37727 ft 382 kts 244°
2026-05-08 10:40 48.31017 -54.45914 37726 ft 382 kts 244°
2026-05-08 10:40 48.28858 -54.53216 37715 ft 382 kts 244°
2026-05-08 10:41 48.26693 -54.60517 37719 ft 383 kts 244°
2026-05-08 10:41 48.24526 -54.67804 37850 ft 387 kts 244°
2026-05-08 10:41 48.23429 -54.71483 38254 ft 384 kts 244°
2026-05-08 10:42 48.22339 -54.75129 38627 ft 381 kts 244°
2026-05-08 10:42 48.21257 -54.78756 38876 ft 381 kts 244°
2026-05-08 10:42 48.20169 -54.82395 39003 ft 383 kts 244°
2026-05-08 10:42 48.19073 -54.86053 39140 ft 385 kts 244°
2026-05-08 10:43 48.17971 -54.89725 39275 ft 386 kts 244°
2026-05-08 10:43 48.16864 -54.93406 39432 ft 388 kts 244°
2026-05-08 10:43 48.15754 -54.97095 39575 ft 389 kts 244°
2026-05-08 10:44 48.13520 -55.04533 39656 ft 393 kts 242°
2026-05-08 10:44 48.11262 -55.11980 39683 ft 391 kts 242°
2026-05-08 10:45 48.09006 -55.19389 39669 ft 390 kts 242°
2026-05-08 10:45 48.06751 -55.26786 39648 ft 390 kts 242°
2026-05-08 10:46 48.04493 -55.34172 39640 ft 390 kts 242°
2026-05-08 10:46 48.02229 -55.41558 39641 ft 390 kts 242°
2026-05-08 10:47 47.99962 -55.48937 39636 ft 390 kts 242°
2026-05-08 10:47 47.97691 -55.56305 39635 ft 390 kts 242°
2026-05-08 10:48 47.95415 -55.63670 39624 ft 390 kts 242°
2026-05-08 10:48 47.93134 -55.71027 39627 ft 390 kts 242°
2026-05-08 10:49 47.90848 -55.78380 39624 ft 390 kts 241°
2026-05-08 10:49 47.88560 -55.85721 39621 ft 390 kts 241°
2026-05-08 10:50 47.86268 -55.93050 39615 ft 390 kts 241°
2026-05-08 10:50 47.83991 -56.00317 39632 ft 390 kts 241°
2026-05-08 10:51 47.81691 -56.07628 39617 ft 389 kts 241°
2026-05-08 10:51 47.79386 -56.14930 39617 ft 389 kts 240°
2026-05-08 10:52 47.77079 -56.22229 39617 ft 390 kts 240°
2026-05-08 10:52 47.74763 -56.29522 39623 ft 390 kts 240°
2026-05-08 10:53 47.72443 -56.36811 39630 ft 390 kts 240°
2026-05-08 10:53 47.70118 -56.44097 39635 ft 390 kts 240°
2026-05-08 10:54 47.67787 -56.51378 39641 ft 390 kts 240°
2026-05-08 10:54 47.65454 -56.58652 39648 ft 390 kts 240°
2026-05-08 10:55 47.63116 -56.65915 39656 ft 390 kts 240°
2026-05-08 10:55 47.60773 -56.73170 39665 ft 390 kts 240°
2026-05-08 10:56 47.58423 -56.80428 39661 ft 390 kts 240°
2026-05-08 10:56 47.56071 -56.87686 39690 ft 390 kts 239°
2026-05-08 10:57 47.53714 -56.94924 39665 ft 390 kts 239°
2026-05-08 10:57 47.50177 -57.05745 39683 ft 389 kts 239°
2026-05-08 10:58 47.47817 -57.12941 39683 ft 389 kts 239°
2026-05-08 10:58 47.45631 -57.19589 39681 ft 389 kts 239°
2026-05-08 10:59 47.43389 -57.26390 39679 ft 389 kts 239°
2026-05-08 10:59 47.41128 -57.33232 39683 ft 389 kts 239°
2026-05-08 11:00 47.38868 -57.40054 39679 ft 389 kts 239°
2026-05-08 11:00 47.36530 -57.47089 39679 ft 389 kts 238°
2026-05-08 11:01 47.34170 -57.54171 39673 ft 389 kts 238°
2026-05-08 11:01 47.31782 -57.61320 39673 ft 389 kts 238°
2026-05-08 11:02 47.28180 -57.72060 39710 ft 390 kts 238°
2026-05-08 11:03 47.25765 -57.79237 39686 ft 391 kts 238°
2026-05-08 11:03 47.23346 -57.86412 39672 ft 391 kts 238°
2026-05-08 11:04 47.20922 -57.93577 39673 ft 391 kts 238°
2026-05-08 11:04 47.18496 -58.00731 39676 ft 391 kts 238°
2026-05-08 11:05 47.16064 -58.07881 39684 ft 391 kts 238°
2026-05-08 11:05 47.13622 -58.15037 39680 ft 391 kts 238°
2026-05-08 11:06 47.11176 -58.22190 39684 ft 392 kts 238°
2026-05-08 11:06 47.08724 -58.29342 39681 ft 392 kts 238°
2026-05-08 11:07 47.06269 -58.36482 39687 ft 391 kts 238°
2026-05-08 11:07 47.03809 -58.43616 39702 ft 392 kts 238°
2026-05-08 11:08 47.01338 -58.50762 39693 ft 393 kts 238°
2026-05-08 11:08 46.98859 -58.57911 39700 ft 394 kts 238°
2026-05-08 11:09 46.96364 -58.65087 39691 ft 395 kts 238°
2026-05-08 11:09 46.93864 -58.72259 39691 ft 395 kts 238°
2026-05-08 11:10 46.91358 -58.79430 39695 ft 395 kts 238°
2026-05-08 11:10 46.88860 -58.86554 39690 ft 396 kts 238°
2026-05-08 11:11 46.86339 -58.93726 39690 ft 396 kts 238°
2026-05-08 11:11 46.83814 -59.00894 39691 ft 397 kts 238°
2026-05-08 11:12 46.81282 -59.08061 39695 ft 397 kts 238°
2026-05-08 11:12 46.78746 -59.15218 39699 ft 397 kts 238°
2026-05-08 11:13 46.76203 -59.22376 39699 ft 397 kts 238°
2026-05-08 11:13 46.73658 -59.29518 39702 ft 397 kts 238°
2026-05-08 11:14 46.71107 -59.36662 39752 ft 397 kts 238°
2026-05-08 11:14 46.68542 -59.43824 39718 ft 399 kts 237°
2026-05-08 11:15 46.65964 -59.51000 39709 ft 400 kts 237°
2026-05-08 11:15 46.63376 -59.58188 39707 ft 401 kts 237°
2026-05-08 11:16 46.61216 -59.64170 39704 ft 401 kts 237°
2026-05-08 11:16 46.58190 -59.72533 39709 ft 401 kts 237°
2026-05-08 11:17 46.55582 -59.79718 39713 ft 401 kts 237°
2026-05-08 11:17 46.53392 -59.85733 39718 ft 402 kts 237°
2026-05-08 11:18 46.50774 -59.92911 39714 ft 402 kts 237°
2026-05-08 11:18 46.48149 -60.00088 39716 ft 402 kts 237°
2026-05-08 11:19 46.45516 -60.07268 39719 ft 402 kts 237°
2026-05-08 11:19 46.42880 -60.14434 39719 ft 402 kts 237°
2026-05-08 11:20 46.40241 -60.21593 39714 ft 402 kts 237°
2026-05-08 11:20 46.37612 -60.28702 39710 ft 403 kts 237°
2026-05-08 11:21 46.34954 -60.35874 39704 ft 404 kts 237°
2026-05-08 11:21 46.32293 -60.43035 39700 ft 403 kts 237°
2026-05-08 11:22 46.29628 -60.50186 39701 ft 403 kts 237°
2026-05-08 11:22 46.26955 -60.57338 39701 ft 404 kts 237°
2026-05-08 11:23 46.24280 -60.64479 39699 ft 404 kts 237°
2026-05-08 11:23 46.21596 -60.71624 39692 ft 404 kts 237°
2026-05-08 11:24 46.18907 -60.78765 39694 ft 404 kts 237°
2026-05-08 11:24 46.16215 -60.85893 39694 ft 404 kts 237°
2026-05-08 11:25 46.13519 -60.93015 39701 ft 404 kts 237°
2026-05-08 11:25 46.10815 -61.00136 39712 ft 405 kts 237°
2026-05-08 11:26 46.08104 -61.07261 39701 ft 405 kts 237°
2026-05-08 11:26 46.05390 -61.14376 39699 ft 405 kts 236°
2026-05-08 11:27 46.02671 -61.21483 39705 ft 405 kts 236°
2026-05-08 11:27 45.99949 -61.28580 39694 ft 405 kts 236°
2026-05-08 11:28 45.97217 -61.35679 39711 ft 405 kts 236°
2026-05-08 11:28 45.94483 -61.42771 39712 ft 405 kts 236°
2026-05-08 11:29 45.91747 -61.49850 39717 ft 405 kts 236°
2026-05-08 11:29 45.89001 -61.56935 39719 ft 405 kts 236°
2026-05-08 11:30 45.86253 -61.64006 39732 ft 405 kts 236°
2026-05-08 11:30 45.83502 -61.71066 39729 ft 405 kts 236°
2026-05-08 11:31 45.80751 -61.78113 39747 ft 404 kts 236°
2026-05-08 11:31 45.77998 -61.85145 39735 ft 404 kts 236°
2026-05-08 11:32 45.75236 -61.92179 39727 ft 404 kts 236°
2026-05-08 11:32 45.72495 -61.99144 39726 ft 404 kts 236°
2026-05-08 11:33 45.69733 -62.06144 39720 ft 404 kts 236°
2026-05-08 11:33 45.66968 -62.13136 39721 ft 403 kts 236°
2026-05-08 11:34 45.64198 -62.20121 39724 ft 403 kts 236°
2026-05-08 11:34 45.61424 -62.27098 39722 ft 403 kts 236°
2026-05-08 11:35 45.58643 -62.34077 39725 ft 403 kts 236°
2026-05-08 11:35 45.55859 -62.41043 39724 ft 404 kts 236°
2026-05-08 11:36 45.53072 -62.48002 39723 ft 403 kts 236°
2026-05-08 11:36 45.50277 -62.54962 39742 ft 404 kts 236°
2026-05-08 11:37 45.47480 -62.61908 39729 ft 404 kts 236°
2026-05-08 11:37 45.44669 -62.68874 39722 ft 404 kts 236°
2026-05-08 11:38 45.41862 -62.75810 39720 ft 404 kts 236°
2026-05-08 11:38 45.39039 -62.82771 39720 ft 404 kts 236°
2026-05-08 11:39 45.36224 -62.89694 39723 ft 404 kts 236°
2026-05-08 11:39 45.33405 -62.96607 39729 ft 404 kts 236°
2026-05-08 11:40 45.30579 -63.03521 39732 ft 404 kts 236°
2026-05-08 11:40 45.27747 -63.10436 39717 ft 405 kts 236°
2026-05-08 11:41 45.24910 -63.17344 39734 ft 405 kts 236°
2026-05-08 11:41 45.22070 -63.24243 39730 ft 405 kts 236°
2026-05-08 11:42 45.19212 -63.31154 39737 ft 408 kts 236°
2026-05-08 11:42 45.16336 -63.38109 39732 ft 409 kts 236°
2026-05-08 11:43 45.13453 -63.45067 39727 ft 409 kts 236°
2026-05-08 11:43 45.10565 -63.52016 39726 ft 409 kts 236°
2026-05-08 11:44 45.07693 -63.58907 39729 ft 409 kts 236°
2026-05-08 11:44 45.04790 -63.65850 39726 ft 410 kts 236°
2026-05-08 11:45 45.01881 -63.72798 39722 ft 410 kts 236°
2026-05-08 11:45 44.98965 -63.79744 39730 ft 411 kts 236°
2026-05-08 11:46 44.96045 -63.86684 39723 ft 411 kts 236°
2026-05-08 11:46 44.93116 -63.93622 39723 ft 411 kts 236°
2026-05-08 11:47 44.90190 -64.00536 39748 ft 411 kts 236°
2026-05-08 11:47 44.87239 -64.07494 39732 ft 414 kts 236°
2026-05-08 11:48 44.84278 -64.14463 39725 ft 414 kts 236°
2026-05-08 11:48 44.81313 -64.21423 39724 ft 414 kts 236°
2026-05-08 11:49 44.78341 -64.28377 39728 ft 414 kts 236°
2026-05-08 11:49 44.75364 -64.35332 39729 ft 414 kts 236°
2026-05-08 11:50 44.72384 -64.42276 39726 ft 414 kts 236°
2026-05-08 11:50 44.69398 -64.49216 39726 ft 414 kts 236°
2026-05-08 11:51 44.66407 -64.56148 39734 ft 414 kts 236°
2026-05-08 11:51 44.63414 -64.63066 39737 ft 414 kts 236°
2026-05-08 11:52 44.60418 -64.69981 39782 ft 414 kts 236°
2026-05-08 11:52 44.57409 -64.76906 39749 ft 416 kts 236°
2026-05-08 11:53 44.54412 -64.83788 39750 ft 416 kts 236°
2026-05-08 11:53 44.51391 -64.90704 39747 ft 415 kts 236°
2026-05-08 11:54 44.48369 -64.97612 39747 ft 415 kts 236°
2026-05-08 11:54 44.45346 -65.04504 39753 ft 415 kts 236°
2026-05-08 11:55 44.42316 -65.11394 39761 ft 415 kts 236°
2026-05-08 11:55 44.39282 -65.18276 39757 ft 415 kts 236°
2026-05-08 11:56 44.36244 -65.25148 39765 ft 415 kts 236°
2026-05-08 11:56 44.33202 -65.32016 39764 ft 415 kts 236°
2026-05-08 11:57 44.30159 -65.38872 39771 ft 415 kts 236°
2026-05-08 11:57 44.27103 -65.45733 39771 ft 417 kts 236°
2026-05-08 11:58 44.24032 -65.52614 39781 ft 417 kts 237°
2026-05-08 11:58 44.20980 -65.59442 39772 ft 417 kts 237°
2026-05-08 11:59 44.17539 -65.67121 39777 ft 417 kts 236°
2026-05-08 11:59 44.15522 -65.71610 39775 ft 417 kts 236°
2026-05-08 12:00 44.13395 -65.76337 39780 ft 417 kts 236°
2026-05-08 12:00 44.10328 -65.83141 39786 ft 417 kts 236°
2026-05-08 12:01 44.07235 -65.89983 39786 ft 417 kts 236°
2026-05-08 12:01 44.04137 -65.96822 39788 ft 417 kts 236°
2026-05-08 12:02 44.01038 -66.03647 39788 ft 417 kts 236°
2026-05-08 12:02 43.97931 -66.10467 39806 ft 418 kts 237°
2026-05-08 12:03 43.94810 -66.17306 39795 ft 419 kts 237°
2026-05-08 12:03 43.91686 -66.24142 39793 ft 419 kts 237°
2026-05-08 12:04 43.88556 -66.30972 39793 ft 419 kts 237°
2026-05-08 12:04 43.85420 -66.37796 39786 ft 419 kts 237°
2026-05-08 12:05 43.82811 -66.43458 39799 ft 419 kts 237°
2026-05-08 12:05 43.79671 -66.50264 39809 ft 419 kts 237°
2026-05-08 12:06 43.76525 -66.57068 39821 ft 419 kts 237°
2026-05-08 12:06 43.73377 -66.63860 39826 ft 419 kts 237°
2026-05-08 12:07 43.70222 -66.70642 39817 ft 419 kts 237°
2026-05-08 12:07 43.67070 -66.77411 39855 ft 419 kts 237°
2026-05-08 12:08 43.63905 -66.84192 39844 ft 420 kts 237°
2026-05-08 12:08 43.60733 -66.90974 39842 ft 420 kts 237°
2026-05-08 12:09 43.57559 -66.97738 39831 ft 419 kts 237°
2026-05-08 12:09 43.54566 -67.04648 39845 ft 419 kts 239°
2026-05-08 12:10 43.51642 -67.11603 39847 ft 419 kts 239°
2026-05-08 12:10 43.48718 -67.18544 39854 ft 419 kts 239°
2026-05-08 12:11 43.45788 -67.25487 39852 ft 419 kts 239°
2026-05-08 12:11 43.42857 -67.32418 39851 ft 419 kts 239°
2026-05-08 12:12 43.39922 -67.39347 39857 ft 419 kts 239°
2026-05-08 12:12 43.36984 -67.46266 39858 ft 419 kts 239°
2026-05-08 12:13 43.34041 -67.53179 39866 ft 419 kts 239°
2026-05-08 12:13 43.31092 -67.60087 39851 ft 418 kts 239°
2026-05-08 12:14 43.28163 -67.66936 39869 ft 418 kts 239°
2026-05-08 12:14 43.25209 -67.73829 39867 ft 418 kts 239°
2026-05-08 12:15 43.22250 -67.80715 39871 ft 418 kts 239°
2026-05-08 12:15 43.19289 -67.87590 39852 ft 418 kts 239°
2026-05-08 12:16 43.16320 -67.94462 39874 ft 418 kts 239°
2026-05-08 12:16 43.13348 -68.01329 39887 ft 421 kts 240°
2026-05-08 12:17 43.10350 -68.08244 39884 ft 422 kts 239°
2026-05-08 12:17 43.07345 -68.15157 39879 ft 422 kts 239°
2026-05-08 12:18 43.04332 -68.22065 39870 ft 422 kts 240°
2026-05-08 12:18 43.01317 -68.28967 39879 ft 422 kts 240°
2026-05-08 12:19 42.98299 -68.35861 39886 ft 422 kts 240°
2026-05-08 12:19 42.95278 -68.42745 39897 ft 422 kts 240°
2026-05-08 12:20 42.92251 -68.49626 39883 ft 422 kts 240°
2026-05-08 12:20 42.89241 -68.56444 39886 ft 423 kts 240°
2026-05-08 12:21 42.86181 -68.63368 39889 ft 423 kts 240°
2026-05-08 12:21 42.83156 -68.70200 39901 ft 423 kts 240°
2026-05-08 12:22 42.80105 -68.77070 39895 ft 423 kts 240°
2026-05-08 12:22 42.77052 -68.83931 39904 ft 423 kts 240°
2026-05-08 12:23 42.73990 -68.90788 39910 ft 424 kts 240°
2026-05-08 12:23 42.70922 -68.97650 39909 ft 424 kts 240°
2026-05-08 12:24 42.67853 -69.04500 39911 ft 424 kts 240°
2026-05-08 12:24 42.64779 -69.11341 39899 ft 423 kts 240°
2026-05-08 12:25 42.61706 -69.18165 39908 ft 423 kts 240°
2026-05-08 12:25 42.58627 -69.24983 39927 ft 423 kts 240°
2026-05-08 12:26 42.55547 -69.31792 39913 ft 423 kts 240°
2026-05-08 12:26 42.52462 -69.38597 39892 ft 423 kts 240°
2026-05-08 12:27 42.49381 -69.45375 39911 ft 421 kts 240°
2026-05-08 12:27 42.46304 -69.52131 39917 ft 421 kts 240°
2026-05-08 12:28 42.43222 -69.58880 39936 ft 421 kts 240°
2026-05-08 12:28 42.40135 -69.65628 39929 ft 421 kts 240°
2026-05-08 12:29 42.37044 -69.72366 39908 ft 420 kts 240°
2026-05-08 12:29 42.33963 -69.79068 39918 ft 419 kts 240°
2026-05-08 12:30 42.30882 -69.85760 39937 ft 419 kts 240°
2026-05-08 12:30 42.27791 -69.92454 39935 ft 419 kts 240°
2026-05-08 12:31 42.24699 -69.99136 39902 ft 419 kts 240°
2026-05-08 12:31 42.21599 -70.05816 39927 ft 418 kts 240°
2026-05-08 12:32 42.18506 -70.12474 39940 ft 417 kts 240°
2026-05-08 12:32 42.15411 -70.19119 39928 ft 417 kts 240°
2026-05-08 12:33 42.12314 -70.25754 39940 ft 418 kts 240°
2026-05-08 12:33 42.09223 -70.32357 39908 ft 418 kts 240°
2026-05-08 12:34 42.06151 -70.38993 39929 ft 417 kts 242°
2026-05-08 12:34 42.03451 -70.45897 39917 ft 416 kts 246°
2026-05-08 12:35 42.01153 -70.53036 39929 ft 415 kts 248°
2026-05-08 12:35 41.98891 -70.60188 39932 ft 416 kts 248°
2026-05-08 12:36 41.96626 -70.67356 39901 ft 416 kts 249°
2026-05-08 12:36 41.94363 -70.74511 39925 ft 414 kts 249°
2026-05-08 12:37 41.92098 -70.81661 39927 ft 414 kts 249°
2026-05-08 12:37 41.89837 -70.88782 39958 ft 414 kts 248°
2026-05-08 12:38 41.87600 -70.95804 39936 ft 416 kts 249°
2026-05-08 12:38 41.85303 -71.03002 39708 ft 416 kts 248°
2026-05-08 12:39 41.84164 -71.06562 39451 ft 413 kts 248°
2026-05-08 12:39 41.83033 -71.10087 39227 ft 409 kts 249°
2026-05-08 12:39 41.81913 -71.13579 39006 ft 405 kts 249°
2026-05-08 12:39 41.80803 -71.17036 38787 ft 402 kts 249°
2026-05-08 12:40 41.79697 -71.20480 38538 ft 401 kts 249°
2026-05-08 12:40 41.78590 -71.23917 38192 ft 401 kts 249°
2026-05-08 12:40 41.77483 -71.27350 37776 ft 401 kts 249°
2026-05-08 12:40 41.76367 -71.30792 37297 ft 402 kts 248°
2026-05-08 12:41 41.75131 -71.34150 36765 ft 402 kts 245°
2026-05-08 12:41 41.73729 -71.37407 36250 ft 403 kts 242°
2026-05-08 12:41 41.72178 -71.40543 35670 ft 405 kts 239°
2026-05-08 12:41 41.70471 -71.43561 35088 ft 407 kts 236°
2026-05-08 12:42 41.68573 -71.46497 34485 ft 410 kts 233°
2026-05-08 12:42 41.66677 -71.49084 33944 ft 413 kts 230°
2026-05-08 12:42 41.64392 -71.51821 33220 ft 417 kts 227°
2026-05-08 12:42 41.62121 -71.54376 32593 ft 415 kts 227°
2026-05-08 12:43 41.59932 -71.56835 32014 ft 414 kts 227°
2026-05-08 12:43 41.57721 -71.59311 31409 ft 414 kts 228°
2026-05-08 12:43 41.55496 -71.61798 30786 ft 413 kts 228°
2026-05-08 12:43 41.53262 -71.64290 30136 ft 412 kts 228°
2026-05-08 12:44 41.51055 -71.66741 29394 ft 411 kts 229°
2026-05-08 12:44 41.48854 -71.69190 28663 ft 409 kts 229°
2026-05-08 12:44 41.46673 -71.71619 27975 ft 406 kts 229°
2026-05-08 12:44 41.44507 -71.74028 27308 ft 405 kts 228°
2026-05-08 12:45 41.42348 -71.76425 26856 ft 404 kts 228°
2026-05-08 12:45 41.40188 -71.78818 26426 ft 402 kts 228°
2026-05-08 12:45 41.38043 -71.81190 25985 ft 399 kts 228°
2026-05-08 12:45 41.35917 -71.83538 25528 ft 396 kts 228°
2026-05-08 12:46 41.33801 -71.85873 25074 ft 393 kts 228°
2026-05-08 12:46 41.31706 -71.88184 24614 ft 390 kts 227°
2026-05-08 12:46 41.29626 -71.90476 24164 ft 386 kts 227°
2026-05-08 12:46 41.27559 -71.92754 23760 ft 388 kts 227°
2026-05-08 12:47 41.25461 -71.95068 23751 ft 395 kts 227°
2026-05-08 12:47 41.23333 -71.97405 23580 ft 397 kts 227°
2026-05-08 12:47 41.21208 -71.99733 22987 ft 394 kts 227°
2026-05-08 12:47 41.19107 -72.02029 22489 ft 389 kts 227°
2026-05-08 12:48 41.17031 -72.04298 21991 ft 383 kts 227°
2026-05-08 12:48 41.14985 -72.06533 21535 ft 378 kts 227°
2026-05-08 12:48 41.12967 -72.08746 21077 ft 373 kts 228°
2026-05-08 12:48 41.11188 -72.11174 20618 ft 361 kts 237°
2026-05-08 12:49 41.09802 -72.13901 20171 ft 352 kts 246°
2026-05-08 12:49 41.08797 -72.16824 19689 ft 345 kts 253°
2026-05-08 12:49 41.08025 -72.19824 19242 ft 343 kts 255°
2026-05-08 12:49 41.07275 -72.22828 18772 ft 342 kts 255°
2026-05-08 12:50 41.06534 -72.25813 18296 ft 341 kts 255°
2026-05-08 12:50 41.05792 -72.28802 17763 ft 340 kts 255°
2026-05-08 12:50 41.05053 -72.31777 17249 ft 339 kts 255°
2026-05-08 12:50 41.04316 -72.34736 16766 ft 337 kts 255°
2026-05-08 12:51 41.03581 -72.37685 16291 ft 336 kts 255°
2026-05-08 12:51 41.02123 -72.43530 15404 ft 332 kts 255°
2026-05-08 12:51 41.01397 -72.46433 14959 ft 331 kts 255°
2026-05-08 12:52 41.00672 -72.49330 14512 ft 331 kts 255°
2026-05-08 12:52 40.99226 -72.55095 13611 ft 329 kts 255°
2026-05-08 12:52 40.98507 -72.57960 13144 ft 328 kts 255°
2026-05-08 12:53 40.97787 -72.60823 12814 ft 322 kts 255°
2026-05-08 12:53 40.97092 -72.63573 12722 ft 308 kts 255°
2026-05-08 12:53 40.96426 -72.66202 12590 ft 295 kts 255°
2026-05-08 12:53 40.95787 -72.68726 12467 ft 283 kts 255°
2026-05-08 12:54 40.95370 -72.70375 12381 ft 277 kts 255°
2026-05-08 12:54 40.94741 -72.72770 12087 ft 277 kts 254°
2026-05-08 12:54 40.94093 -72.75182 11800 ft 271 kts 254°
2026-05-08 12:54 40.93474 -72.77482 11526 ft 266 kts 254°
2026-05-08 12:55 40.92860 -72.79766 11270 ft 262 kts 254°
2026-05-08 12:55 40.92249 -72.82044 11014 ft 262 kts 254°
2026-05-08 12:55 40.91640 -72.84315 10846 ft 262 kts 254°
2026-05-08 12:55 40.91031 -72.86591 10782 ft 262 kts 254°
2026-05-08 12:56 40.90420 -72.88865 10738 ft 262 kts 254°
2026-05-08 12:56 40.89809 -72.91137 10703 ft 262 kts 254°
2026-05-08 12:56 40.89198 -72.93412 10658 ft 262 kts 254°
2026-05-08 12:56 40.88592 -72.95659 10488 ft 257 kts 255°
2026-05-08 12:57 40.87983 -72.97899 10272 ft 260 kts 255°
2026-05-08 12:57 40.87375 -73.00156 10128 ft 261 kts 255°
2026-05-08 12:57 40.86766 -73.02421 9979 ft 262 kts 255°
2026-05-08 12:57 40.86154 -73.04693 9592 ft 262 kts 255°
2026-05-08 12:58 40.85546 -73.06948 9252 ft 259 kts 255°
2026-05-08 12:58 40.84940 -73.09193 8936 ft 258 kts 255°
2026-05-08 12:58 40.84333 -73.11439 8627 ft 258 kts 255°
2026-05-08 12:58 40.83732 -73.13666 8276 ft 257 kts 253°
2026-05-08 12:59 40.82777 -73.15688 7948 ft 264 kts 233°
2026-05-08 12:59 40.81483 -73.17412 7631 ft 265 kts 229°
2026-05-08 12:59 40.80151 -73.19094 7327 ft 264 kts 229°
2026-05-08 12:59 40.78835 -73.20780 7025 ft 263 kts 229°
2026-05-08 13:00 40.77540 -73.22473 6840 ft 261 kts 229°
2026-05-08 13:00 40.76256 -73.24173 6714 ft 261 kts 230°
2026-05-08 13:00 40.74969 -73.25892 6574 ft 261 kts 230°
2026-05-08 13:00 40.73695 -73.27602 6463 ft 261 kts 230°
2026-05-08 13:01 40.72422 -73.29318 6318 ft 262 kts 230°
2026-05-08 13:01 40.71150 -73.31033 6165 ft 262 kts 230°
2026-05-08 13:01 40.69872 -73.32754 6023 ft 262 kts 230°
2026-05-08 13:01 40.68599 -73.34474 5847 ft 262 kts 230°
2026-05-08 13:02 40.67325 -73.36195 5592 ft 261 kts 230°
2026-05-08 13:02 40.66057 -73.37906 5345 ft 260 kts 230°
2026-05-08 13:02 40.64797 -73.39606 5102 ft 257 kts 229°
2026-05-08 13:02 40.63573 -73.41253 4884 ft 252 kts 229°
2026-05-08 13:03 40.62362 -73.42883 4660 ft 247 kts 229°
2026-05-08 13:03 40.61167 -73.44489 4401 ft 243 kts 229°
2026-05-08 13:03 40.59994 -73.46068 4140 ft 239 kts 229°
2026-05-08 13:03 40.58836 -73.47623 3910 ft 236 kts 229°
2026-05-08 13:04 40.57699 -73.49151 3672 ft 232 kts 229°
2026-05-08 13:04 40.56579 -73.50655 3475 ft 228 kts 229°
2026-05-08 13:04 40.55504 -73.52166 3252 ft 222 kts 240°
2026-05-08 13:04 40.55057 -73.54017 3138 ft 205 kts 274°
2026-05-08 13:05 40.55346 -73.55783 3142 ft 195 kts 293°
2026-05-08 13:05 40.55948 -73.57376 3149 ft 194 kts 301°
2026-05-08 13:05 40.56655 -73.58886 3071 ft 194 kts 302°
2026-05-08 13:05 40.57371 -73.60396 2821 ft 194 kts 302°
2026-05-08 13:06 40.58071 -73.61918 2561 ft 194 kts 301°
2026-05-08 13:06 40.58754 -73.63433 2331 ft 189 kts 301°
2026-05-08 13:06 40.59405 -73.64888 2038 ft 179 kts 301°
2026-05-08 13:06 40.60018 -73.66256 1757 ft 167 kts 301°
2026-05-08 13:07 40.60581 -73.67509 1513 ft 151 kts 301°
2026-05-08 13:07 40.61093 -73.68647 1326 ft 138 kts 301°
2026-05-08 13:07 40.61573 -73.69713 1158 ft 135 kts 300°
2026-05-08 13:07 40.62054 -73.70782 1000 ft 135 kts 300°
2026-05-08 13:08 40.62529 -73.71840 812 ft 133 kts 300°
2026-05-08 13:08 40.62999 -73.72889 592 ft 133 kts 300°
2026-05-08 13:08 40.63475 -73.73947 410 ft 135 kts 301°
2026-05-08 13:08 40.63954 -73.75019 276 ft 136 kts 302°
2026-05-08 13:09 40.64440 -73.76079 115 ft 134 kts 302°
2026-05-08 13:09 40.64896 -73.77080 28 ft 106 kts 301°
2026-05-08 13:09 40.65160 -73.77660 31 ft 40 kts 301°
2026-05-08 13:09 40.65269 -73.77905 27 ft 30 kts 296°
2026-05-08 13:10 40.65315 -73.78156 32 ft 20 kts 270°
2026-05-08 13:10 40.65315 -73.78233 34 ft 0 kts 272°
2026-05-08 13:10 40.65316 -73.78246 34 ft 4 kts 275°
2026-05-08 13:10 40.65333 -73.78319 33 ft 11 kts 295°
2026-05-08 13:11 40.65360 -73.78429 33 ft 15 kts 265°
2026-05-08 13:11 40.65309 -73.78589 32 ft 21 kts 240°
2026-05-08 13:11 40.65236 -73.78764 31 ft 24 kts 247°
2026-05-08 13:11 40.65237 -73.78996 32 ft 27 kts 287°
2026-05-08 13:12 40.65286 -73.79213 32 ft 22 kts 279°
2026-05-08 13:12 40.65250 -73.79416 32 ft 22 kts 242°
2026-05-08 13:12 40.65182 -73.79583 32 ft 22 kts 242°
2026-05-08 13:12 40.65087 -73.79752 32 ft 24 kts 216°
2026-05-08 13:13 40.64916 -73.79807 32 ft 22 kts 181°
2026-05-08 13:13 40.64771 -73.79792 32 ft 22 kts 161°
2026-05-08 13:13 40.64630 -73.79677 32 ft 25 kts 144°
2026-05-08 13:13 40.64486 -73.79598 32 ft 21 kts 175°
2026-05-08 13:14 40.64352 -73.79590 33 ft 16 kts 183°
2026-05-08 13:14 40.64230 -73.79602 33 ft 17 kts 184°
2026-05-08 13:14 40.64114 -73.79604 33 ft 18 kts 173°
2026-05-08 13:14 40.63991 -73.79514 31 ft 23 kts 128°
2026-05-08 13:15 40.63931 -73.79386 30 ft 13 kts 109°
2026-05-08 13:15 40.63976 -73.79267 29 ft 17 kts 46°
2026-05-08 13:15 40.64026 -73.79200 33 ft 10 kts 46°
2026-05-08 13:15 40.64065 -73.79179 33 ft 6 kts 349°
2026-05-08 13:16 40.64086 -73.79189 33 ft 2 kts 333°
2026-05-08 13:16 40.64099 -73.79197 33 ft 0 kts 336°
2026-05-08 13:16 40.64103 -73.79199 33 ft 0 kts 329°
2026-05-08 13:16 40.64105 -73.79202 33 ft 0 kts 326°
2026-05-08 13:17 40.64109 -73.79205 33 ft 1 kts 326°
2026-05-08 13:17 40.64111 -73.79207 33 ft 0 kts 326°
2026-05-08 13:17 40.64115 -73.79210 33 ft 1 kts 326°
2026-05-08 13:17 40.64116 -73.79212 33 ft 0 kts 326°